EW6709 Weather Reports


time (UTC)temp
C
wind
direction
speed
KPH
gust
KPH
rain 1hr
cm
rain 24hr
cm
rain mn
cm
humidity
%
barometer
mb
20260508064513 11 76 0.0 0.0 0.00 1.19 0.00 84 1014.4
20260508063012 11 76 0.0 0.0 0.00 1.19 0.00 84 1014.3
20260508061511 11 76 0.0 0.0 0.00 1.19 0.00 84 1014.2
20260508060014 11 76 0.0 0.0 0.00 1.19 0.00 84 1014.4
20260508054518 11 76 0.0 0.0 0.00 1.22 0.00 84 1014.3
20260508053008 11 76 0.0 0.0 0.00 1.22 0.00 84 1014.3
20260508051506 11 76 0.0 0.0 0.00 1.22 0.00 84 1014.1
20260508050006 12 76 0.0 0.0 0.00 1.22 0.00 84 1014.2
20260508044503 12 76 0.0 0.0 0.00 1.57 0.00 84 1014.1
20260508043001 12 76 0.0 0.0 0.00 1.57 0.00 84 1014.1
20260508041600 12 76 0.0 0.0 0.00 1.57 0.00 84 1014.1
20260508040100 12 76 0.0 0.0 0.00 1.57 0.00 84 1014.0
20260508034557 12 76 0.0 0.0 0.00 1.73 1.57 84 1013.9
20260508033056 12 76 0.0 0.0 0.00 1.73 1.57 84 1013.6
20260508031600 12 76 0.0 0.0 0.00 1.73 1.57 84 1013.3
20260508030104 12 76 0.0 0.0 0.00 1.73 1.57 84 1013.4
20260508024605 12 76 0.0 0.0 0.00 1.73 1.57 84 1013.2
20260508023053 12 76 0.0 0.0 0.00 1.73 1.57 84 1013.1
20260508021553 12 76 0.0 0.0 0.00 1.73 1.57 84 1012.9
20260508020104 12 76 0.0 0.0 0.00 1.73 1.57 84 1012.6
20260508014553 12 76 0.0 0.0 0.00 1.73 1.57 84 1012.7
20260508013050 12 76 0.0 0.0 0.00 1.73 1.57 85 1012.5
20260508011552 12 76 0.0 0.0 0.03 1.73 1.57 84 1012.0
20260508010052 12 107 0.0 0.0 0.05 1.73 1.57 84 1011.5
20260508004549 12 107 0.0 0.0 0.05 1.73 1.57 85 1012.0
20260508003049 12 107 0.0 0.0 0.05 1.73 1.57 85 1011.5
20260508001547 12 205 0.0 0.0 0.03 1.70 1.55 85 1011.9
20260508000046 12 163 0.0 0.0 0.00 1.68 1.52 85 1011.3
20260507234546 12 67 0.0 0.0 0.00 1.68 1.52 85 1010.7
20260507233045 12 58 0.0 0.0 0.00 1.68 1.52 85 1010.6
20260507231546 12 47 0.0 12.9 0.00 1.68 1.52 85 1010.5
20260507230044 12 90 0.0 14.5 0.00 1.68 1.52 85 1010.5
20260507224545 13 44 0.0 0.0 0.00 1.68 1.52 84 1010.6
20260507223042 12 49 0.0 0.0 0.00 1.68 1.52 84 1010.1
20260507221540 12 78 0.0 9.7 0.00 1.68 1.52 85 1010.0
20260507220040 12 39 0.0 1.6 0.00 1.68 1.52 84 1010.0
20260507214546 12 53 0.0 4.8 0.00 1.68 1.52 84 1010.4
20260507213039 12 57 0.0 6.4 0.00 1.68 1.52 85 1010.3
20260507211541 12 355 0.0 9.7 0.00 1.68 1.52 84 1010.1
20260507210037 13 69 0.0 12.9 0.00 1.68 1.52 84 1009.8
20260507204533 13 68 0.0 3.2 0.00 1.68 1.52 84 1009.3
20260507203036 13 10 0.0 1.6 0.00 1.68 1.52 84 1009.5
20260507201532 13 84 0.0 3.2 0.00 1.68 1.52 84 1009.1
20260507200030 14 63 0.0 1.6 0.00 1.68 1.52 84 1009.3
20260507194531 13 68 0.0 8.0 0.00 1.91 1.52 84 1009.3
20260507193034 13 126 0.0 11.3 0.00 1.91 1.52 84 1009.3
20260507191527 14 332 0.0 14.5 0.03 1.91 1.52 84 1009.2
20260507190025 14 11 0.0 12.9 0.03 1.91 1.52 84 1009.6
20260507184522 15 225 0.0 14.5 0.03 2.03 1.52 84 1008.9
20260507183036 15 130 0.0 1.6 0.03 2.03 1.52 84 1009.1
20260507181516 16 296 0.0 0.0 0.00 2.01 1.50 84 1009.1
20260507180019 16 346 0.0 9.7 0.00 2.01 1.50 85 1008.7
20260507174515 20 217 0.0 8.0 0.00 2.01 1.50 83 1009.0
20260507173012 20 261 0.0 4.8 0.03 2.01 1.50 81 1008.7
20260507171511 20 157 0.0 0.0 0.03 2.01 1.50 82 1008.2
20260507170009 20 96 0.0 0.0 0.13 2.01 1.50 82 1007.7
20260507164508 20 128 0.0 0.0 0.13 2.01 1.50 82 1008.1
20260507163003 20 225 0.0 0.0 0.10 1.98 1.45 82 1008.6
20260507161503 20 225 0.0 0.0 0.10 1.98 1.45 82 1009.3
20260507160007 20 225 0.0 0.0 0.03 1.88 1.37 82 1009.7
20260507154502 20 225 0.0 0.0 0.03 1.88 1.37 82 1009.5
20260507153001 20 225 0.0 0.0 0.08 1.88 1.37 82 1008.9
20260507151600 20 234 0.0 1.6 0.10 1.88 1.37 82 1009.1
20260507150057 19 342 0.0 4.8 0.15 1.88 1.37 82 1009.3
20260507144554 19 239 0.0 0.0 0.18 1.85 1.35 82 1009.5
20260507143055 19 265 0.0 3.2 0.25 1.80 1.30 83 1009.7
20260507141552 19 238 0.0 4.8 0.28 1.78 1.27 83 1009.6
20260507134549 19 295 0.0 0.0 0.33 1.68 1.17 83 1009.9
20260507133047 19 295 0.0 0.0 0.20 1.55 1.04 83 1010.2
20260507131547 19 221 0.0 0.0 0.18 1.50 0.99 83 1010.1
20260507124600 18 240 0.0 1.6 0.03 1.35 0.84 83 1010.1
20260507123045 18 240 0.0 0.0 0.03 1.35 0.84 83 1010.1
20260507121545 18 242 0.0 0.0 0.00 1.32 0.81 83 1010.0
20260507120042 18 208 0.0 1.6 0.00 1.32 0.81 83 1010.2
20260507114558 18 256 0.0 0.0 0.00 1.32 0.81 83 1010.2
20260507113039 18 256 0.0 0.0 0.00 1.32 0.81 83 1010.5
20260507111539 18 256 0.0 1.6 0.00 1.32 0.81 83 1010.6
20260507110044 18 196 0.0 1.6 0.03 1.32 0.81 83 1010.7
20260507104548 18 163 0.0 0.0 0.05 1.32 0.81 83 1010.2
20260507103038 18 163 0.0 0.0 0.05 1.32 0.81 83 1010.2
20260507101537 18 163 0.0 0.0 0.05 1.32 0.81 83 1010.2
20260507100038 18 216 0.0 0.0 0.05 1.30 0.79 83 1010.2
20260507094536 18 225 0.0 0.0 0.03 1.27 0.76 84 1010.2
20260507093039 18 163 0.0 0.0 0.08 1.27 0.76 84 1010.2
20260507091540 18 163 0.0 0.0 0.15 1.27 0.76 84 1010.2
20260507090034 17 163 0.0 0.0 0.18 1.24 0.71 84 1010.3
20260507084534 17 163 0.0 0.0 0.20 1.22 0.71 84 1010.3
20260507083032 17 163 0.0 4.8 0.20 1.19 0.69 84 1010.5
20260507081531 17 337 0.0 0.0 0.13 1.12 0.61 84 1011.3
20260507080030 17 337 0.0 0.0 0.13 1.07 0.56 84 1011.3
20260507074529 18 337 0.0 0.0 0.13 1.02 0.51 84 1010.8
20260507073029 18 330 0.0 0.0 0.10 0.99 0.48 84 1011.5
20260507071526 18 330 0.0 0.0 0.10 0.99 0.48 84 1011.7
20260507070025 18 61 0.0 0.0 0.03 0.91 0.41 84 1011.1